Location: Bartshausen
(51.8454°N, 9.8167°E)
Time: 22:54:24
(UTC+00:00)

Iridium 4 Rocket - Pass Details

Date: 21 February 2026
Orbit: 579 x 887 km, 86.9° (Epoch: 11 March)

Event Time Altitude Azimuth Distance (km) Brightness Sun altitude
Rises 05:35:34 0° 124° (SE) 3,396 8.1 -8.1°
Reaches altitude 10° 05:39:20 10° 99° (E) 2,410 7.9 -7.5°
Maximum altitude 05:41:45 13° 72° (ENE) 2,154 7.0 -7.1°
Drops below altitude 10° 05:44:06 10° 45° (NE) 2,331 6.6 -6.8°
Sets 05:47:37 0° 19° (NNE) 3,190 6.8 -6.2°
